Wind_Speed
8 8 8 8 8 7 6 5 3 3 3 2 2 3 3 2 2 3 3 3 3 3 3 3 3 3 3 3 3 3 3 2 2 1 1 1 0 0 1 1 1 1 1 2
8 8 9 9 8 8 6 5 5 5 5 4 4 4 4 2 2 1 2 2 2 2 3 2 2 2 2 2 3 3 3 3 2 2 2 1 1 1 1 1 2 2 3 3
9 10 9 9 8 8 7 7 7 7 6 6 5 5 5 5 3 2 2 3 3 3 4 4 4 4 3 3 4 3 3 4 4 3 3 3 3 3 2 2 3 4 4 4
12 12 11 10 9 9 9 9 9 8 6 6 5 5 7 6 5 5 5 5 5 5 5 6 5 5 4 5 5 5 5 5 4 5 5 5 5 5 5 5 6 6 6 6
13 13 12 11 11 11 11 10 9 8 8 7 7 6 7 6 6 7 7 7 7 6 5 6 7 7 6 6 6 6 6 6 6 6 7 7 7 7 7 7 7 7 7 7
13 13 13 13 12 12 11 10 10 9 8 8 8 7 7 7 8 8 8 8 7 8 7 8 8 8 8 8 8 8 7 7 7 7 7 7 8 8 8 8 8 9 8 9
15 15 14 14 13 13 11 10 9 9 9 10 10 8 8 9 9 10 10 9 9 9 9 9 10 9 9 9 9 9 9 9 8 8 8 9 9 9 10 10 11 11 11 11
16 16 16 15 14 14 13 11 11 11 11 11 12 10 9 10 10 10 11 11 11 12 11 11 11 11 10 10 11 11 10 10 10 10 10 10 10 11 12 12 13 13 14 14
17 17 17 16 15 15 15 14 13 13 13 13 14 12 11 11 11 12 12 12 12 13 13 13 13 13 13 13 13 12 12 12 13 13 13 13 13 13 14 14 15 15 16 16
20 19 18 18 17 18 17 16 15 13 14 14 15 14 13 13 13 13 13 13 14 14 14 14 14 15 15 15 15 14 13 15 16 16 15 15 15 14 15 16 17 18 18 18
20 20 20 20 19 19 19 19 18 17 17 16 15 16 16 14 15 15 14 14 14 15 15 15 15 16 16 15 15 16 17 17 18 18 18 17 16 16 16 18 19 19 20 21
22 21 21 21 21 21 21 20 20 20 20 19 17 18 18 17 17 16 16 15 15 16 16 17 18 18 18 18 17 17 18 19 19 18 19 18 18 18 18 19 20 20 21 22
23 22 22 21 22 23 24 23 23 22 21 20 18 19 20 19 19 18 17 17 16 17 18 18 19 19 20 19 19 20 21 21 21 20 20 20 21 21 20 21 21 22 23 24
25 25 24 23 22 23 24 25 25 24 22 21 21 22 22 22 21 20 19 19 18 18 19 20 21 21 21 21 22 22 23 22 22 23 24 23 24 24 24 24 24 25 25 26
27 26 26 25 25 25 25 25 26 25 24 24 23 24 23 24 23 22 22 21 21 20 20 20 21 21 22 22 23 23 24 24 24 25 25 25 25 26 26 26 27 27 28 28
28 28 27 27 26 26 26 26 26 26 26 26 26 26 25 26 25 25 24 24 23 23 22 22 22 23 24 24 24 25 25 25 26 26 27 28 28 28 29 29 29 30 31 31
30 29 28 27 26 27 27 26 26 27 27 27 28 28 27 26 26 25 25 25 25 25 24 24 24 25 25 26 26 27 27 27 28 28 29 30 30 31 31 32 32 32 33 34
29 29 29 27 27 28 28 26 26 27 27 27 27 28 28 27 27 27 27 26 26 27 27 27 27 28 28 28 28 29 29 29 30 31 32 32 33 33 34 34 34 35 35 36
29 29 29 29 28 29 29 28 27 27 27 26 27 28 28 28 27 28 28 28 29 29 29 29 30 30 30 30 30 31 31 31 32 33 34 34 35 35 35 35 36 36 36 37
30 30 30 30 29 29 29 28 28 28 28 26 26 26 27 28 28 28 28 29 30 30 30 31 32 32 32 32 33 33 33 33 34 34 35 36 36 36 35 36 37 37 37 37
31 31 31 31 30 30 30 29 28 29 29 28 28 28 28 29 29 29 29 29 30 31 32 32 33 33 34 34 34 34 34 34 35 36 37 37 36 36 36 37 37 37 37 37
32 31 31 31 31 31 31 30 30 30 30 30 29 29 29 30 30 30 30 30 31 31 32 33 33 33 34 34 35 35 35 36 36 37 37 37 37 37 38 37 38 38 39 39
32 32 31 31 32 32 32 32 31 31 31 31 30 30 31 31 31 31 31 31 31 32 32 33 34 34 34 35 36 36 36 36 36 37 37 37 37 38 39 39 38 39 40 39
33 32 32 32 32 32 31 31 31 30 30 30 31 31 31 32 31 31 31 32 32 32 33 34 35 35 35 35 36 36 36 36 37 37 37 38 39 39 39 39 39 39 39 39
33 32 32 32 32 31 31 31 31 31 31 31 31 31 31 32 32 32 32 32 32 33 33 34 34 35 35 35 36 36 37 37 38 38 38 38 38 37 38 38 38 39 39 39
33 32 32 32 31 31 31 32 32 32 32 32 32 32 32 32 32 32 32 32 33 33 34 36 37 37 37 37 37 37 37 38 39 39 39 38 38 39 39 39 38 39 39 39
Wind_Direction
207 200 198 206 205 206 216 225 252 283 288 311 337 340 346 6 34 43 48 32 19 17 15 24 37 47 44 32 28 22 19 16 14 11 28 41 285 281 221 208 218 237 278 297
214 213 215 221 222 222 227 234 253 269 278 283 299 317 322 315 323 348 11 2 342 330 327 326 331 348 5 8 357 347 337 329 328 331 314 297 276 278 282 244 249 272 286 289
214 223 226 227 229 229 233 239 250 266 275 278 286 309 300 298 294 293 303 314 312 299 288 289 293 301 306 317 322 325 319 315 308 310 310 297 282 279 273 280 276 280 286 290
222 228 230 230 231 232 241 247 249 260 265 269 268 281 288 279 275 281 287 288 285 284 282 282 283 285 290 295 300 303 302 305 305 306 302 295 291 285 279 281 281 282 284 284
228 229 232 235 234 235 241 251 255 259 262 264 270 269 279 275 266 270 276 281 283 283 288 288 285 279 282 288 289 292 293 296 298 295 292 290 288 287 288 289 285 286 285 283
232 233 234 237 238 242 247 253 260 262 263 267 265 264 264 265 260 261 268 275 279 278 285 284 284 282 279 281 285 287 287 290 293 295 293 287 283 286 287 285 284 285 290 289
237 239 240 240 241 244 245 251 264 269 271 270 267 262 257 262 260 258 263 271 277 279 281 280 280 282 283 279 280 281 284 288 290 291 293 289 284 285 288 286 285 283 287 290
239 243 246 243 240 245 246 246 249 255 264 271 276 269 263 263 263 262 262 268 272 276 278 277 275 276 277 276 276 278 279 283 286 288 291 290 285 283 285 287 287 286 286 287
237 242 247 246 243 244 247 248 249 256 263 269 270 273 272 266 263 264 264 268 271 273 275 274 273 273 274 274 276 276 278 280 282 285 286 289 288 285 282 283 284 284 283 282
236 239 245 246 246 244 245 251 254 255 261 267 274 276 275 267 260 261 264 266 267 270 272 273 274 275 275 275 276 276 277 281 284 282 285 285 287 286 282 282 284 283 283 284
237 241 246 247 245 249 250 250 253 258 259 264 272 272 272 270 264 264 266 267 267 268 270 272 275 278 280 280 279 278 278 283 289 288 285 285 285 284 286 286 286 285 284 283
240 242 246 251 250 248 250 253 257 260 263 265 266 270 271 270 267 267 269 269 267 266 268 270 273 278 278 279 280 279 281 283 285 285 284 283 284 284 285 286 286 287 286 284
241 243 248 254 257 254 252 255 257 258 262 264 265 269 270 271 269 267 268 268 266 266 268 271 274 275 275 276 275 277 279 281 284 283 283 284 284 284 285 286 287 289 287 285
243 246 246 248 252 258 260 259 259 260 260 263 265 266 267 269 269 268 268 269 266 267 268 270 272 272 273 273 274 277 279 281 283 283 283 283 286 287 287 288 290 290 289 286
245 248 249 249 251 255 260 261 261 261 262 263 265 267 266 266 269 270 269 270 269 268 269 269 269 271 273 275 275 277 279 281 282 283 283 283 287 288 287 290 292 291 290 288
245 248 252 253 254 257 260 261 262 263 263 264 264 265 265 266 268 269 268 268 269 269 269 269 268 269 271 273 274 276 278 280 281 282 283 284 286 286 287 288 289 290 290 289
244 248 251 255 258 260 260 260 261 263 263 264 265 265 265 266 267 268 267 267 266 269 270 268 267 268 270 273 274 275 277 279 281 282 284 285 285 286 286 287 288 288 289 288
246 247 251 254 256 258 262 263 262 263 264 265 264 264 265 267 268 268 266 265 266 267 269 269 267 267 268 270 273 275 276 277 279 281 282 283 285 285 286 287 287 287 288 289
248 248 250 252 257 262 263 263 263 265 266 266 266 264 266 268 269 269 268 266 266 267 269 268 267 267 267 268 271 273 275 277 278 279 281 282 284 284 285 285 286 287 287 288
248 249 250 252 255 259 264 264 264 265 265 265 267 266 266 267 268 269 268 267 266 266 269 268 267 268 268 269 271 273 274 276 278 280 281 282 283 283 284 285 286 287 288 288
249 249 250 253 256 258 261 263 264 264 266 267 267 267 266 266 267 268 269 268 266 266 267 268 268 269 269 270 271 273 274 276 278 279 280 280 281 282 283 284 286 287 289 289
251 252 253 254 255 258 261 262 262 264 266 267 268 268 268 268 268 269 269 269 269 269 269 269 269 269 270 271 273 274 276 277 278 279 280 280 281 283 284 285 285 286 288 288
250 251 253 253 254 257 259 261 263 264 266 266 267 268 268 270 271 271 270 270 271 271 270 270 271 271 271 272 274 275 276 277 278 279 279 280 281 283 284 284 285 286 287 286
249 250 252 254 255 257 260 261 262 263 264 265 266 268 269 270 271 271 271 269 270 271 271 272 273 273 274 274 274 276 277 277 278 280 281 281 281 283 284 284 284 285 286 286
251 251 253 254 256 258 259 261 263 264 265 265 266 267 269 270 270 270 269 269 269 269 271 274 274 275 276 275 276 277 278 280 280 281 282 283 284 285 286 287 288 288 288 289
251 252 253 255 257 259 261 262 265 266 266 266 266 266 268 269 270 270 270 269 270 270 272 273 274 275 277 277 278 279 280 281 282 283 283 284 286 287 287 289 290 290 290 290
Height
5926 5929 5930 5930 5931 5932 5932 5933 5933 5933 5932 5931 5931 5930 5929 5928 5927 5926 5926 5925 5924 5923 5922 5922 5921 5921 5920 5919 5918 5918 5917 5916 5915 5915 5914 5914 5913 5913 5913 5913 5912 5912 5912 5911
5926 5927 5928 5928 5929 5930 5931 5932 5932 5932 5931 5931 5930 5930 5929 5928 5928 5927 5926 5925 5924 5923 5923 5922 5922 5921 5920 5920 5919 5918 5917 5916 5916 5915 5914 5914 5913 5913 5913 5912 5912 5912 5911 5911
5924 5926 5925 5926 5928 5929 5930 5930 5930 5930 5930 5930 5930 5931 5929 5928 5927 5926 5926 5925 5924 5923 5922 5922 5922 5921 5920 5920 5919 5918 5917 5916 5915 5915 5914 5914 5913 5913 5912 5912 5912 5911 5911 5910
5921 5922 5923 5924 5926 5927 5928 5928 5928 5928 5929 5930 5930 5931 5929 5928 5927 5926 5925 5924 5923 5923 5922 5921 5921 5920 5920 5919 5918 5918 5917 5916 5915 5914 5914 5913 5912 5912 5912 5911 5911 5910 5910 5910
5919 5920 5921 5922 5923 5924 5925 5925 5926 5927 5927 5929 5929 5930 5930 5927 5926 5925 5924 5924 5923 5922 5921 5921 5920 5919 5919 5918 5917 5917 5916 5915 5914 5913 5912 5912 5911 5911 5910 5910 5910 5909 5909 5908
5916 5917 5918 5919 5920 5921 5922 5924 5924 5925 5926 5927 5927 5927 5928 5926 5925 5924 5923 5922 5922 5921 5920 5920 5919 5918 5917 5917 5916 5915 5915 5914 5913 5912 5911 5910 5910 5909 5909 5908 5908 5907 5907 5907
5913 5914 5915 5917 5917 5919 5920 5922 5924 5925 5926 5926 5924 5924 5925 5923 5922 5922 5921 5920 5920 5919 5919 5918 5917 5916 5916 5915 5914 5914 5913 5912 5911 5911 5910 5909 5908 5907 5907 5906 5906 5905 5905 5904
5911 5913 5913 5914 5915 5916 5917 5920 5922 5924 5924 5924 5921 5921 5922 5920 5919 5919 5918 5918 5918 5917 5917 5916 5915 5914 5914 5913 5912 5912 5911 5910 5910 5909 5908 5907 5906 5905 5904 5904 5903 5902 5902 5901
5908 5910 5910 5910 5911 5913 5914 5915 5918 5919 5919 5919 5919 5918 5918 5917 5916 5916 5916 5915 5915 5914 5914 5913 5912 5912 5911 5910 5910 5909 5908 5907 5907 5906 5905 5904 5903 5902 5901 5900 5899 5898 5898 5897
5903 5905 5906 5906 5908 5909 5910 5912 5913 5915 5915 5916 5916 5915 5915 5913 5913 5913 5913 5912 5911 5911 5910 5910 5909 5909 5908 5907 5906 5906 5905 5905 5904 5903 5902 5901 5899 5898 5897 5896 5895 5894 5894 5893
5899 5901 5902 5902 5904 5905 5906 5907 5908 5910 5911 5912 5913 5914 5910 5909 5909 5909 5909 5908 5908 5907 5907 5907 5906 5905 5904 5903 5903 5902 5902 5901 5900 5899 5898 5897 5896 5895 5893 5892 5891 5890 5889 5888
5893 5896 5897 5898 5899 5900 5901 5902 5904 5906 5905 5905 5907 5910 5905 5905 5904 5904 5904 5904 5904 5904 5903 5903 5902 5902 5901 5900 5899 5898 5897 5896 5896 5895 5894 5893 5891 5890 5889 5888 5886 5884 5883 5882
5888 5890 5892 5894 5895 5895 5895 5896 5898 5899 5900 5900 5902 5904 5900 5899 5899 5899 5899 5899 5899 5899 5899 5898 5898 5897 5896 5896 5895 5893 5892 5891 5890 5890 5889 5888 5886 5885 5884 5883 5881 5879 5878 5876
5882 5884 5887 5890 5890 5890 5889 5890 5891 5893 5894 5894 5895 5895 5894 5893 5893 5894 5894 5894 5894 5894 5893 5893 5893 5892 5891 5891 5890 5889 5887 5886 5885 5884 5883 5882 5880 5879 5877 5876 5875 5874 5872 5870
5875 5877 5879 5881 5882 5883 5883 5884 5885 5885 5887 5888 5888 5888 5888 5887 5887 5887 5888 5888 5888 5888 5888 5887 5887 5886 5886 5885 5884 5883 5882 5881 5880 5878 5877 5875 5874 5873 5871 5870 5868 5867 5865 5863
5868 5870 5872 5873 5875 5875 5876 5877 5877 5878 5879 5880 5880 5880 5880 5880 5880 5881 5881 5881 5881 5881 5881 5881 5881 5880 5880 5879 5878 5877 5876 5875 5873 5872 5870 5869 5867 5866 5864 5863 5861 5859 5857 5855
5861 5863 5865 5867 5868 5868 5869 5870 5870 5871 5871 5872 5872 5873 5873 5873 5873 5873 5873 5873 5873 5873 5873 5874 5873 5873 5873 5872 5871 5870 5869 5868 5866 5865 5863 5861 5860 5858 5856 5854 5852 5850 5848 5846
5854 5856 5857 5859 5861 5860 5863 5863 5863 5863 5863 5864 5864 5864 5865 5865 5865 5865 5865 5865 5865 5865 5866 5866 5865 5865 5865 5864 5864 5863 5861 5860 5859 5857 5855 5853 5852 5850 5848 5846 5844 5842 5839 5837
5846 5848 5850 5852 5852 5853 5854 5854 5855 5855 5855 5856 5856 5856 5857 5857 5857 5857 5857 5857 5857 5857 5857 5857 5857 5856 5856 5856 5855 5854 5853 5852 5850 5848 5847 5845 5843 5841 5839 5837 5834 5832 5830 5827
5838 5840 5842 5843 5845 5846 5847 5846 5847 5848 5847 5848 5848 5849 5849 5849 5849 5849 5849 5848 5848 5848 5848 5848 5847 5847 5847 5847 5846 5845 5844 5842 5841 5839 5837 5835 5833 5830 5828 5826 5824 5822 5819 5817
5829 5831 5833 5835 5836 5838 5837 5838 5839 5841 5841 5840 5840 5840 5840 5840 5841 5840 5840 5839 5839 5839 5839 5839 5838 5838 5838 5837 5837 5836 5834 5833 5831 5829 5827 5824 5823 5820 5818 5816 5814 5811 5809 5806
5821 5823 5825 5827 5828 5830 5828 5829 5831 5831 5831 5831 5831 5831 5831 5831 5831 5831 5830 5830 5830 5830 5830 5829 5829 5829 5828 5828 5827 5825 5824 5822 5820 5818 5816 5814 5812 5810 5807 5805 5803 5800 5798 5795
5812 5815 5816 5818 5820 5819 5819 5820 5821 5822 5822 5822 5822 5822 5822 5822 5822 5822 5821 5821 5821 5820 5820 5819 5819 5819 5818 5817 5816 5815 5814 5812 5810 5808 5805 5803 5801 5799 5796 5794 5792 5789 5786 5784
5802 5805 5806 5808 5809 5810 5811 5811 5812 5812 5812 5813 5813 5813 5813 5813 5812 5812 5812 5811 5811 5811 5810 5809 5809 5808 5808 5807 5805 5804 5803 5801 5799 5797 5795 5793 5790 5788 5785 5783 5781 5778 5775 5773
5793 5795 5797 5798 5800 5801 5802 5802 5803 5803 5803 5803 5804 5804 5804 5803 5803 5803 5802 5802 5802 5801 5801 5800 5799 5798 5797 5796 5794 5793 5791 5790 5788 5786 5784 5781 5778 5776 5774 5772 5769 5767 5764 5761
5784 5786 5788 5789 5791 5792 5793 5793 5793 5794 5794 5794 5794 5794 5794 5794 5793 5793 5792 5792 5792 5791 5791 5790 5788 5787 5786 5784 5783 5781 5780 5778 5776 5774 5772 5769 5767 5765 5762 5760 5757 5754 5752 5749